Regional Weather Roundup
Issued by NWS

Home | Current Version | Previous Version | Text Only | Print | Product List | Glossary Off
Versions: 1 2 3 4 5 6 7 8 9 10 11 12 13 14 15 16 17 18 19 20 21 22 23 24 25 26 27 28 29 30 31 32 33 34 35 36 37 38 39 40 41 42 43 44 45 46 47 48 49 50

000
ASUS43 KFSD 200902
RWRSD

WEATHER ROUNDUP FOR SOUTH DAKOTA
NATIONAL WEATHER SERVICE SIOUX FALLS SD
300 AM CST FRI JAN 20 2017

NOTE: "FAIR" INDICATES FEW OR NO CLOUDS BELOW 12,000 FEET WITH NO
SIGNIFICANT WEATHER AND/OR OBSTRUCTIONS TO VISIBILITY.


SDZ001>005-009-010-012>017-201000-
NORTHWEST AND NORTH CENTRAL SOUTH DAKOTA

CITY           SKY/WX    TMP DP  RH WIND       PRES   REMARKS
BUFFALO          N/A     24  18  77 W12       29.34R WCI  13
FAITH            N/A     18  15  88 NW12      29.39S WCI   5
MOBRIDGE       FOG       24  20  84 W3        29.40F VSB 1/2
$$

SDZ012>016-024>037-041>051-057-063-072>074-201000-
SOUTHWEST AND SOUTH CENTRAL SOUTH DAKOTA

CITY           SKY/WX    TMP DP  RH WIND       PRES   REMARKS
RAPID CTY ARPT CLOUDY    29  20  69 N9        29.39F WCI  20
PIERRE         FOG       22  20  92 W5        29.43S VSB 1/4 WCI  16
CUSTER         CLOUDY    30  17  58 NW6       29.40S WCI  24
ELLSWORTH AFB  CLOUDY    27  19  74 N13       29.38F WCI  16
PHILIP         CLOUDY    16  13  88 CALM      29.42S
PINE RIDGE     CLOUDY    33  24  69 W7        29.42F WCI  27
SPEARFISH      FAIR      32  21  64 W7        29.43S WCI  26
WINNER         FAIR      33  31  92 S6        29.43S WCI  28
$$

SDZ004>011-016>023-039-040-201000-
NORTHEAST SOUTH DAKOTA

CITY           SKY/WX    TMP DP  RH WIND       PRES   REMARKS
ABERDEEN       CLOUDY    34  32  92 S12       29.50R FOG     WCI  25
WATERTOWN      CLOUDY    34  34 100 SE12      29.51F FOG     WCI  25
BROOKINGS      CLOUDY    35  34  96 SE8       29.53S FOG     WCI  29
SISSETON         N/A     34  34 100 SE10      29.53S WCI  26
$$

SDZ017-020-022-023-036>040-048>070-201000-
SOUTHEAST SOUTH DAKOTA

CITY           SKY/WX    TMP DP  RH WIND       PRES   REMARKS
SIOUX FALLS    CLOUDY    37  37 100 S9        29.54F
HURON          CLOUDY    36  36 100 SE9       29.49S
CHAMBERLAIN    CLOUDY    37  36  96 S7        29.44F
MITCHELL       CLOUDY    39  38  96 SE12      29.50S
YANKTON        MOCLDY    37  36  93 SE8       29.53F
$$

ABBREVIATIONS USED IN REMARKS
   TC - TEMPERATURE IN CELSIUS
  WCI - WIND CHILL INDEX
   HX - HEAT INDEX
  VSB - VISIBILITY




USA.gov is the U.S. government's official web portal to all federal, state and local government web resources and services.